Location: Munkebjergskolens Observatorium
(55.3864°N, 10.3987°E)
Time: 05:13:34
(UTC+02:00)

QB50P2 - Pass Details

Date: 04 April 2023
Orbit: 581 x 596 km, 98.0° (Epoch: 31 May)

Event Time Altitude Azimuth Distance (km) Brightness Sun altitude
Rises 02:10:12 0° 25° (NNE) 2,838 ? -28.3°
Reaches altitude 10° 02:12:52 10° 42° (NE) 1,927 ? -28.2°
Enters shadow 02:15:35 20° 82° (E) 1,384 ? -28.1°
